Location: Ponte Samoggia
(44.5667°N, 11.1333°E)
Time: 22:20:05
(UTC+00:00)

SL-8 Rocket - Pass Details

Date: 26 May 2022
Orbit: 958 x 990 km, 82.9° (Epoch: 29 June)

Event Time Altitude Azimuth Distance (km) Brightness Sun altitude
Rises 02:45:15 0° 348° (NNW) 3,712 7.5 -8.4°
Reaches altitude 10° 02:47:48 10° 345° (NNW) 2,760 6.7 -8.0°
Maximum altitude 02:54:00 60° 268° (W) 1,126 4.1 -7.2°
Drops below altitude 10° 03:00:10 10° 190° (S) 2,739 5.9 -6.3°
Sets 03:02:42 0° 186° (S) 3,680 6.6 -6.0°
